[[{"header":{"parameterUnit":"m.s-1","parameterCategory":1,"la1":30.2991,"la2":30.254,"lo1":-89.0895,"lo2":-89.0444,"dy":0.0017,"dx":0.0017,"nx":28,"ny":28,"refTime":"2024-11-26T09:00:00:Z","depth":0,"parameterNumber":2,"parameterNumberName":"U-component_of_WINDS"},"data":[0,0,0,0,0,0,0,0,0,0,0,0,0,0,0,0,0,0,0,0,0,0,0,0,0,0,0,0,0,0,0,0,0,0,0,0,0,0,0,0,0,0,0,0,0,0,0,0,0,0,0,0,0,0,0,0,0,0,2.3932,2.3933,0,2.4042,2.4043,2.4044,2.4036,2.4034,2.4032,2.4031,2.4147,2.4152,2.4156,0,0,0,0,0,0,0,0,0,0,0,0,0,2.3718,2.3722,2.3932,2.3933,2.3934,2.4042,2.4043,2.4045,2.4036,2.4034,2.4032,2.403,2.4146,2.4151,2.4157,0,0,0,0,0,0,0,0,0,0,0,0,0,2.3818,2.3724,2.3931,2.3943,2.3945,2.4041,2.4043,2.4045,2.4036,2.4034,2.4031,2.4029,2.4144,2.4151,2.4157,2.425,0,0,2.4179,2.4182,0,0,0,0,0,0,0,0,2.3812,2.3826,2.394,2.3942,2.3945,2.4022,2.4011,2.4114,2.4037,2.4002,2.4031,2.4028,2.4108,2.4118,2.4144,2.4256,2.4261,2.4179,2.4184,2.4187,2.4189,0,0,0,0,0,0,0,2.3806,2.3821,2.3975,2.3941,2.3945,2.3944,2.3955,2.403,2.4068,2.4005,2.4004,2.4017,2.4109,2.4137,2.4147,2.4263,2.4179,2.4185,2.419,2.4192,2.4459,2.4462,0,0,0,0,0,0,2.3795,2.3815,2.3972,2.3979,2.3871,2.395,2.3963,2.4,2.4067,2.4074,2.4019,2.4016,2.4127,2.4138,2.4151,2.4266,2.4187,2.4193,2.4197,2.4456,2.446,2.4463,0,0,0,0,0,0,2.3791,2.3809,2.3967,2.3897,2.3917,2.3956,2.3998,2.4004,2.4032,2.4078,2.4085,2.4041,2.4125,2.4141,2.4226,2.4269,2.4196,2.4203,2.4453,2.4457,2.4461,2.4495,0,0,0,0,0,0,2.3785,2.3808,2.3842,2.3898,2.3921,2.4039,2.4001,2.4007,2.4043,2.4041,2.41,2.4108,2.4124,2.4216,2.4233,2.4278,2.4208,2.4449,2.4455,2.446,2.449,2.45,2.4508,0,0,0,0,0,2.3777,2.3848,2.3844,2.3863,2.3964,2.4042,2.4055,2.4072,2.4047,2.4083,2.4113,2.4106,2.4262,2.4224,2.4244,2.4291,2.4447,2.4453,2.446,2.4486,2.4498,2.4508,0,0,0,0,0,0,2.3797,2.3855,2.3852,2.3942,2.3987,2.404,2.4086,2.4084,2.4138,2.4133,2.4153,2.4166,2.4252,2.428,2.4238,2.4386,2.4351,2.4362,2.4365,2.4376,2.4385,2.4377,2.4214,0,0,0,0,0,2.3811,2.3868,2.3916,2.3991,2.4014,2.4046,2.4081,2.409,2.4138,2.4157,2.4193,2.4241,2.4301,2.434,2.4398,2.4494,2.4508,2.4537,2.4546,2.4553,2.4562,2.4617,2.4631,2.4484,2.4484,2.4484,0,0,2.3843,2.3881,2.3916,2.3996,2.4032,2.4092,2.4062,2.4127,2.4172,2.4167,2.425,2.4278,2.4333,2.4425,2.4467,2.4451,2.4606,2.4561,2.4566,2.4572,2.4626,2.4639,2.4652,2.4489,2.4488,2.4487,0,0,2.393,2.3964,2.4032,2.4069,2.4123,2.4144,2.4161,2.4215,2.4233,2.4316,2.4315,2.437,2.4472,2.4512,2.4546,2.4651,2.4647,2.4669,2.4716,2.477,2.4782,2.4792,2.4831,2.4845,2.4678,2.4678,2.4678,0,2.3962,2.4051,2.4067,2.4132,2.4168,2.4166,2.4236,2.4271,2.4342,2.4368,2.4349,2.4479,2.4515,2.4617,2.4643,2.467,2.4691,2.4662,2.4779,2.4789,2.4799,2.4837,2.4851,2.468,2.468,2.468,2.468,0,2.4089,2.4151,2.4199,2.4267,2.4309,2.4376,2.4403,2.4444,2.445,2.4474,2.456,2.4604,2.4672,2.4697,2.4703,2.48,2.4789,2.4774,2.4739,2.4815,2.4851,2.4865,2.4684,2.4683,2.4682,2.4682,0,0,2.4191,2.4268,2.4286,2.4318,2.4379,2.4428,2.4496,2.4561,2.4596,2.4646,2.4705,2.4793,2.478,2.4818,2.4829,2.4876,2.4959,2.4856,2.4857,2.4875,2.5071,2.5083,2.5099,2.4957,2.4959,2.4962,2.5067,0,2.4286,2.4405,2.4422,2.4528,2.4586,2.4586,2.4646,2.4691,2.4716,2.477,2.4798,2.486,2.4837,2.4861,2.4907,2.4939,2.4999,2.4931,2.5013,2.5016,2.5,2.5117,2.5129,2.5227,2.5081,2.5083,2.5085,0,2.4412,2.4465,2.4577,2.4632,2.4657,2.471,2.4772,2.4824,2.4876,2.4891,2.4934,2.494,2.5013,2.4975,2.5076,2.503,2.5065,2.5086,2.509,2.5099,2.5055,2.5131,2.5258,2.5273,2.5107,2.5105,2.5103,0,2.4477,2.4576,2.4657,2.4684,2.4749,2.4787,2.4817,2.4866,2.4905,2.496,2.4986,2.5049,2.5083,2.5133,2.5157,2.5126,2.5258,2.5221,2.5273,2.5273,2.5301,2.5299,2.5437,2.5322,2.5322,2.5322,2.5321,0,2.4582,2.465,2.4687,2.4736,2.4814,2.4834,2.4911,2.4939,2.4984,2.504,2.5044,2.5097,2.5125,2.5183,2.5202,2.5284,2.5299,2.5315,2.5319,2.5315,2.5313,2.5339,2.5333,2.5325,2.5325,2.5324,2.5323,0,2.4668,2.4695,2.4782,2.4838,2.4853,2.4908,2.4957,2.5006,2.503,2.5102,2.512,2.5159,2.5227,2.5256,2.534,2.5353,2.5448,2.5447,2.543,2.5432,2.5483,2.5479,2.5643,2.5666,2.5535,2.5536,2.5537,0,2.4733,2.4786,2.4847,2.4885,2.4915,2.4976,2.5015,2.5038,2.5079,2.5144,2.5186,2.5254,2.5309,2.5419,2.5457,2.5522,2.5523,2.5576,2.5533,2.5527,2.5525,2.5522,2.5529,2.5584,2.5585,2.5586,2.5587,0,2.4846,2.4858,2.4914,2.4976,2.5023,2.5074,2.5123,2.5154,2.5184,2.5231,2.53,2.5344,2.543,2.5499,2.5566,2.5598,2.5599,2.5601,2.5617,2.5613,2.5602,2.561,2.5453,2.5597,2.5596,2.5595,2.5595,2.5594,2.4925,2.4973,2.5024,2.5087,2.5127,2.5173,2.5222,2.5253,2.5311,2.5382,2.5392,2.5468,2.5521,2.5611,2.5646,2.5707,2.5693,2.5716,2.5722,2.5728,2.5732,2.5592,2.5719,2.5719,2.5719,2.5718,2.5718,0,2.504,2.5073,2.5131,2.52,2.5251,2.5246,2.53,2.5343,2.5409,2.5458,2.5513,2.5594,2.5661,2.5704,2.5772,2.5812,2.5815,2.583,2.5827,2.5835,2.5739,2.5719,2.5827,2.5827,2.5827,2.5827,2.5827,2.5827,2.5106,2.5187,2.5205,2.5306,2.5339,2.5412,2.5444,2.5487,2.5527,2.5617,2.5672,2.5699,2.5747,2.5819,2.5881,2.5892,2.5917,2.5933,2.5944,2.5853,2.5842,2.5831,2.5813,2.5938,2.5939,2.6036,2.6036,2.6037]},{"header":{"parameterUnit":"m.s-1","parameterCategory":1,"la1":30.2991,"la2":30.254,"lo1":-89.0895,"lo2":-89.0444,"dy":0.0017,"dx":0.0017,"nx":28,"ny":28,"refTime":"2024-11-26T09:00:00:Z","depth":0,"parameterNumber":3,"parameterNumberName":"V-component_of_WINDS"},"data":[0,0,0,0,0,0,0,0,0,0,0,0,0,0,0,0,0,0,0,0,0,0,0,0,0,0,0,0,0,0,0,0,0,0,0,0,0,0,0,0,0,0,0,0,0,0,0,0,0,0,0,0,0,0,0,0,0,0,-1.1086,-1.1085,0,-1.0939,-1.0938,-1.0936,-1.0933,-1.0935,-1.0937,-1.0939,-1.0783,-1.0777,-1.0771,0,0,0,0,0,0,0,0,0,0,0,0,0,-1.136,-1.1355,-1.1086,-1.1084,-1.1083,-1.094,-1.0938,-1.0936,-1.0933,-1.0935,-1.0938,-1.094,-1.0785,-1.0778,-1.0771,0,0,0,0,0,0,0,0,0,0,0,0,0,-1.123,-1.1354,-1.1087,-1.1064,-1.1061,-1.094,-1.0938,-1.0935,-1.0933,-1.0935,-1.0938,-1.0941,-1.0787,-1.0778,-1.077,-1.066,0,0,-1.0743,-1.0739,0,0,0,0,0,0,0,0,-1.1237,-1.122,-1.1069,-1.1066,-1.1061,-1.0958,-1.0977,-1.0843,-1.0932,-1.0981,-1.0939,-1.0942,-1.0838,-1.0826,-1.0792,-1.0653,-1.0646,-1.0742,-1.0737,-1.0733,-1.073,0,0,0,0,0,0,0,-1.1247,-1.1226,-1.1028,-1.1067,-1.1062,-1.106,-1.1045,-1.0952,-1.0896,-1.0977,-1.0976,-1.0959,-1.0837,-1.08,-1.0788,-1.0644,-1.0742,-1.0734,-1.0729,-1.0726,-1.0409,-1.0406,0,0,0,0,0,0,-1.1261,-1.1234,-1.1033,-1.1024,-1.1158,-1.1053,-1.1036,-1.0988,-1.0897,-1.0886,-1.0957,-1.096,-1.0814,-1.0798,-1.0783,-1.0649,-1.0733,-1.0725,-1.072,-1.0412,-1.0408,-1.0405,0,0,0,0,0,0,-1.1267,-1.1243,-1.1039,-1.1129,-1.1102,-1.1046,-1.0992,-1.0984,-1.0947,-1.0882,-1.0872,-1.0931,-1.0815,-1.0795,-1.0691,-1.0644,-1.0721,-1.0713,-1.0416,-1.0411,-1.0407,-1.0381,0,0,0,0,0,0,-1.1274,-1.1245,-1.1203,-1.1128,-1.1098,-1.0951,-1.0989,-1.0979,-1.0933,-1.0935,-1.0854,-1.0843,-1.0816,-1.0704,-1.0683,-1.0633,-1.0706,-1.042,-1.0414,-1.0408,-1.0385,-1.0376,-1.0367,0,0,0,0,0,-1.1284,-1.12,-1.1201,-1.1177,-1.1045,-1.0948,-1.0931,-1.0903,-1.0929,-1.0886,-1.0845,-1.0846,-1.0653,-1.0694,-1.0669,-1.0616,-1.0422,-1.0415,-1.0408,-1.039,-1.0378,-1.0367,0,0,0,0,0,0,-1.1268,-1.119,-1.119,-1.1079,-1.1021,-1.0948,-1.0893,-1.0891,-1.0822,-1.0826,-1.0793,-1.0775,-1.0672,-1.0633,-1.0681,-1.0506,-1.0541,-1.0528,-1.0535,-1.0523,-1.0514,-1.0525,-1.0699,0,0,0,0,0,-1.1253,-1.1182,-1.1116,-1.1025,-1.0996,-1.095,-1.0906,-1.089,-1.0828,-1.0802,-1.0753,-1.0691,-1.0616,-1.0567,-1.0495,-1.038,-1.0363,-1.0332,-1.0323,-1.0316,-1.0305,-1.0243,-1.0229,-1.0382,-1.0382,-1.0382,0,0,-1.1218,-1.1166,-1.1123,-1.1021,-1.0973,-1.09,-1.0928,-1.0849,-1.0795,-1.0789,-1.0689,-1.0651,-1.058,-1.0471,-1.042,-1.0435,-1.0259,-1.0307,-1.0302,-1.0295,-1.0234,-1.022,-1.0207,-1.0377,-1.0378,-1.0379,0,0,-1.1118,-1.1072,-1.0991,-1.0944,-1.0874,-1.0844,-1.0825,-1.0753,-1.0728,-1.0628,-1.0623,-1.0557,-1.0429,-1.0379,-1.0336,-1.0221,-1.0219,-1.0198,-1.015,-1.009,-1.0078,-1.0067,-1.0026,-1.0012,-1.0188,-1.0188,-1.0188,0,-1.1083,-1.0974,-1.095,-1.0871,-1.0827,-1.0822,-1.074,-1.0695,-1.0603,-1.0572,-1.0591,-1.0432,-1.0383,-1.0263,-1.0236,-1.0201,-1.0178,-1.0206,-1.0082,-1.0071,-1.006,-1.0021,-1.0006,-1.0186,-1.0186,-1.0186,-1.0186,0,-1.0936,-1.0861,-1.0804,-1.0719,-1.0668,-1.0588,-1.055,-1.0501,-1.049,-1.0459,-1.0357,-1.0299,-1.0216,-1.0186,-1.0173,-1.0064,-1.0077,-1.0089,-1.0123,-1.0044,-1.0006,-0.9991,-1.0183,-1.0183,-1.0184,-1.0184,0,0,-1.0819,-1.0724,-1.0704,-1.0666,-1.0589,-1.053,-1.045,-1.0371,-1.033,-1.0268,-1.02,-1.0093,-1.0106,-1.0058,-1.0039,-0.9987,-0.99,-1.0006,-1.0004,-0.9989,-0.9778,-0.9769,-0.9752,-0.99,-0.9897,-0.9894,-0.9784,0,-1.0711,-1.0572,-1.0548,-1.0425,-1.0356,-1.0352,-1.0282,-1.0227,-1.0196,-1.0132,-1.0096,-1.0022,-1.0043,-1.0014,-0.9962,-0.9922,-0.9857,-0.993,-0.9835,-0.9832,-0.9853,-0.9732,-0.9721,-0.962,-0.9769,-0.9766,-0.9765,0,-1.0566,-1.0503,-1.0374,-1.0309,-1.0279,-1.0217,-1.0144,-1.0083,-1.0021,-1.0002,-0.995,-0.9939,-0.9856,-0.9895,-0.9779,-0.9829,-0.9789,-0.9764,-0.9759,-0.9749,-0.9793,-0.9718,-0.9587,-0.9571,-0.9741,-0.9743,-0.9745,0,-1.0495,-1.0378,-1.0286,-1.0254,-1.0175,-1.0132,-1.0097,-1.0038,-0.9992,-0.9928,-0.9898,-0.9824,-0.9784,-0.9726,-0.9695,-0.9727,-0.9583,-0.9619,-0.9564,-0.9565,-0.9533,-0.9535,-0.9393,-0.9508,-0.9508,-0.9508,-0.9509,0,-1.0376,-1.0298,-1.0253,-1.0197,-1.0109,-1.0083,-0.9996,-0.9961,-0.9909,-0.9845,-0.9837,-0.9776,-0.974,-0.9674,-0.9649,-0.9558,-0.954,-0.9521,-0.9516,-0.9522,-0.9524,-0.9495,-0.9501,-0.9504,-0.9505,-0.9506,-0.9507,0,-1.0281,-1.0248,-1.0148,-1.0084,-1.0065,-1.0003,-0.9947,-0.9892,-0.9862,-0.9782,-0.9761,-0.9713,-0.9636,-0.96,-0.9504,-0.9487,-0.9384,-0.9383,-0.9405,-0.9403,-0.9351,-0.9356,-0.9184,-0.916,-0.9291,-0.929,-0.9289,0,-1.0208,-1.0148,-1.0077,-1.0035,-1.0,-0.9932,-0.9887,-0.9859,-0.9812,-0.9738,-0.9692,-0.9615,-0.9552,-0.9429,-0.9384,-0.9311,-0.9308,-0.9253,-0.9297,-0.9306,-0.9307,-0.9311,-0.9305,-0.9245,-0.9243,-0.9242,-0.9242,0,-1.0081,-1.0068,-1.0005,-0.9935,-0.9883,-0.9826,-0.9771,-0.9736,-0.97,-0.9648,-0.957,-0.9522,-0.9425,-0.9349,-0.9273,-0.9236,-0.9232,-0.9229,-0.9212,-0.9217,-0.9233,-0.9224,-0.9384,-0.9232,-0.9233,-0.9234,-0.9234,-0.9235,-0.9994,-0.9941,-0.9884,-0.9814,-0.977,-0.972,-0.9665,-0.963,-0.9565,-0.9486,-0.9474,-0.9391,-0.9332,-0.923,-0.9191,-0.9125,-0.9138,-0.9113,-0.9107,-0.9102,-0.9099,-0.9245,-0.9111,-0.9111,-0.9111,-0.9112,-0.9112,0,-0.9867,-0.9831,-0.9767,-0.9691,-0.9636,-0.9641,-0.9581,-0.9534,-0.9462,-0.9408,-0.9347,-0.9259,-0.9185,-0.9137,-0.9063,-0.9019,-0.9016,-0.9001,-0.9003,-0.8995,-0.9092,-0.9114,-0.9005,-0.9005,-0.9005,-0.9005,-0.9005,-0.9005,-0.9794,-0.9706,-0.9687,-0.9577,-0.9541,-0.9462,-0.9427,-0.938,-0.9337,-0.924,-0.918,-0.915,-0.9098,-0.902,-0.8953,-0.8941,-0.8914,-0.8898,-0.8886,-0.8977,-0.8988,-0.8998,-0.9019,-0.8892,-0.8892,-0.8794,-0.8794,-0.8793]}]]